Weather History for State College, PA

Change the Weather History Date:

Sunday, November 13, 2011

  Actual Average Record
Temperature  
Mean Temperature 51 °F -  
Max Temperature 60 °F 47 °F 70 °F (1964)
Min Temperature 42 °F 31 °F 18 °F (1981)
Degree Days  
Heating Degree Days 14    
Growing Degree Days 1 (Base 50)    
Moisture  
Dew Point 30 °F    
Average Humidity 44    
Maximum Humidity 58    
Minimum Humidity 23    
Precipitation  
Precipitation 0.00 in - - ()
Sea Level Pressure  
Sea Level Pressure 29.94 in    
Wind  
Wind Speed 5 mph (SW)    
Max Wind Speed 17 mph    
Max Gust Speed 20 mph    
Visibility 10 miles    
Events      
Averages and records for this station are not official NWS values.
T = Trace of Precipitation, MM = Missing Value Source: NWS Daily Summary

Daily Weather History Graph

Daily Weather History Graph

Search for Another Location

Airport:

Trip Planner

Search our weather history database for the weather conditions in past years. The results will help you decide how hot, cold, wet, or windy it might be!

Date:

Astronomy

Nov. 13, 2011 Rise Set
Actual Time 6:55 AM EST 4:54 PM EST
Civil Twilight 6:26 AM EST 5:24 PM EST
Nautical Twilight 5:53 AM EST 5:57 PM EST
Astronomical Twilight 5:21 AM EST 6:29 PM EST
Moon 7:01 PM EST (11/13) 9:27 AM EST (11/13)
Length of Visible Light 10h 57m
Length of Day
9h 59m
Waning Gibbous, 93% of the Moon is Illuminated
Nov 13
Waning Gibbous
Nov 18
Last Quarter
Nov 25
New
Dec 2
First Quarter
Dec 10
Full

Hourly Weather History & Observations

Time (EST) Temp. Windchill Dew Point Humidity Pressure Visibility Wind Dir Wind Speed Gust Speed Precip Events Conditions
12:15 AM 48.2 °F - 26.6 °F 43% 30.04 in 10.0 mi West 3.5 mph - N/A   Clear
12:35 AM 48.2 °F - 26.6 °F 43% 30.04 in 10.0 mi West 4.6 mph - N/A   Clear
12:55 AM 48.2 °F - 26.6 °F 43% 30.04 in 10.0 mi West 4.6 mph - N/A   Clear
1:15 AM 44.6 °F 41.4 °F 28.4 °F 53% 30.04 in 10.0 mi West 5.8 mph - N/A   Clear
1:35 AM 46.4 °F 44.3 °F 26.6 °F 46% 30.04 in 10.0 mi West 4.6 mph - N/A   Clear
1:55 AM 46.4 °F 44.3 °F 26.6 °F 46% 30.05 in 10.0 mi West 4.6 mph - N/A   Clear
2:15 AM 46.4 °F - 26.6 °F 46% 30.04 in 10.0 mi Calm Calm - N/A   Clear
2:35 AM 48.2 °F - 24.8 °F 40% 30.03 in 10.0 mi West 4.6 mph - N/A   Clear
3:15 AM 48.2 °F - 26.6 °F 43% 30.03 in 10.0 mi WSW 4.6 mph - N/A   Clear
3:35 AM 44.6 °F 43.1 °F 28.4 °F 53% 30.03 in 10.0 mi SW 3.5 mph - N/A   Clear
3:55 AM 42.8 °F - 28.4 °F 57% 30.03 in 10.0 mi Calm Calm - N/A   Clear
4:15 AM 46.4 °F 44.3 °F 26.6 °F 46% 30.03 in 10.0 mi SW 4.6 mph - N/A   Clear
4:35 AM 42.8 °F 40.1 °F 28.4 °F 57% 30.03 in 10.0 mi SW 4.6 mph - N/A   Clear
4:55 AM 46.4 °F 43.5 °F 26.6 °F 46% 30.03 in 10.0 mi WSW 5.8 mph - N/A   Clear
5:53 AM 44.6 °F 42.2 °F 26.6 °F 49% 30.02 in 10.0 mi SW 4.6 mph - N/A   Clear
8:53 AM 51.8 °F - 26.6 °F 38% 30.00 in 10.0 mi WSW 5.8 mph - N/A   Clear
10:53 AM 57.2 °F - 21.2 °F 25% 29.96 in 10.0 mi SSW 11.5 mph - N/A   Clear
11:53 AM 59.0 °F - 21.2 °F 23% 29.92 in 10.0 mi SSW 8.1 mph - N/A   Clear
12:53 PM 60.8 °F - 24.8 °F 25% 29.91 in 10.0 mi SW 17.3 mph - N/A   Overcast
1:53 PM 60.8 °F - 28.4 °F 29% 29.87 in 10.0 mi SSW 11.5 mph 17.3 mph N/A   Mostly Cloudy
3:57 PM 60.8 °F - 28.4 °F 29% 29.84 in 10.0 mi South 8.1 mph 19.6 mph N/A   Clear
4:53 PM 59.0 °F - 28.4 °F 31% 29.84 in 10.0 mi South 11.5 mph 16.1 mph N/A   Clear
5:53 PM 57.2 °F - 30.2 °F 36% 29.84 in 10.0 mi SSW 9.2 mph - N/A   Clear
6:53 PM 53.6 °F - 32.0 °F 44% 29.85 in 10.0 mi WSW 6.9 mph - N/A   Clear
7:53 PM 53.6 °F - 33.8 °F 47% 29.85 in 10.0 mi SW 6.9 mph - N/A   Clear
8:53 PM 53.6 °F - 35.6 °F 51% 29.87 in 10.0 mi SW 5.8 mph - N/A   Scattered Clouds
9:15 PM 55.4 °F - 33.8 °F 44% 29.87 in 10.0 mi SSW 6.9 mph - N/A   Mostly Cloudy
9:35 PM 55.4 °F - 33.8 °F 44% 29.87 in 10.0 mi SSW 5.8 mph - N/A   Mostly Cloudy
9:53 PM 55.4 °F - 33.8 °F 44% 29.87 in 10.0 mi SW 5.8 mph - N/A   Overcast
9:55 PM 53.6 °F - 35.6 °F 51% 29.86 in 10.0 mi SSW 5.8 mph - N/A   Scattered Clouds
10:15 PM 53.6 °F - 35.6 °F 51% 29.85 in 10.0 mi SW 4.6 mph - N/A   Clear
10:35 PM 51.8 °F - 35.6 °F 54% 29.85 in 10.0 mi SSW 5.8 mph - N/A   Clear
10:55 PM 51.8 °F - 35.6 °F 54% 29.85 in 10.0 mi SW 6.9 mph - N/A   Clear
11:15 PM 51.8 °F - 35.6 °F 54% 29.85 in 10.0 mi SW 6.9 mph - N/A   Clear
11:35 PM 50.0 °F - 35.6 °F 58% 29.85 in 10.0 mi WSW 8.1 mph - N/A   Clear
11:55 PM 51.8 °F - 35.6 °F 54% 29.85 in 10.0 mi SW 8.1 mph - N/A   Clear